[[{"header":{"parameterUnit":"m.s-1","parameterCategory":1,"la1":30.2991,"la2":30.254,"lo1":-89.0895,"lo2":-89.0444,"dy":0.0017,"dx":0.0017,"nx":28,"ny":28,"refTime":"2024-08-12T03:00:00:Z","depth":0,"parameterNumber":2,"parameterNumberName":"U-component_of_WINDS"},"data":[0,0,0,0,0,0,0,0,0,0,0,0,0,0,0,0,0,0,0,0,0,0,0,0,0,0,0,0,0,0,0,0,0,0,0,0,0,0,0,0,0,0,0,0,0,0,0,0,0,0,0,0,0,0,0,0,0,0,0.9084,0.9084,0,0.9079,0.9079,0.9078,0.9065,0.9065,0.9065,0.9064,0.9058,0.9058,0.9058,0,0,0,0,0,0,0,0,0,0,0,0,0,0.9083,0.9083,0.9084,0.9084,0.9084,0.9079,0.9079,0.9078,0.9065,0.9065,0.9065,0.9064,0.9058,0.9058,0.9058,0,0,0,0,0,0,0,0,0,0,0,0,0,0.9081,0.9083,0.9084,0.9077,0.9076,0.9079,0.9079,0.9078,0.9065,0.9065,0.9064,0.9064,0.9058,0.9058,0.9058,0.9068,0,0,0.9059,0.9059,0,0,0,0,0,0,0,0,0.9081,0.9081,0.9078,0.9077,0.9076,0.9072,0.9076,0.9075,0.9065,0.9069,0.9064,0.9064,0.9063,0.9063,0.9063,0.9067,0.9067,0.9059,0.9059,0.9059,0.9059,0,0,0,0,0,0,0,0.9081,0.9081,0.9082,0.9078,0.9077,0.9074,0.9073,0.9076,0.9069,0.9069,0.9068,0.9068,0.9063,0.9063,0.9062,0.9067,0.9059,0.9059,0.9059,0.9059,0.908,0.908,0,0,0,0,0,0,0.9082,0.9081,0.9082,0.9082,0.9078,0.9074,0.9073,0.9074,0.9068,0.9067,0.9068,0.9067,0.9063,0.9062,0.9062,0.9073,0.9059,0.9059,0.9059,0.908,0.908,0.9081,0,0,0,0,0,0,0.9083,0.9083,0.9082,0.9081,0.9081,0.9074,0.9075,0.9074,0.9074,0.9068,0.9066,0.9069,0.9062,0.9062,0.9067,0.9072,0.9059,0.9059,0.9079,0.908,0.908,0.9094,0,0,0,0,0,0,0.9083,0.9083,0.9086,0.9081,0.9081,0.9086,0.9076,0.9074,0.9074,0.9073,0.9069,0.9067,0.9062,0.9067,0.9067,0.9072,0.9059,0.9078,0.9079,0.908,0.9093,0.9095,0.9097,0,0,0,0,0,0.9083,0.909,0.9086,0.9086,0.9085,0.9087,0.9087,0.908,0.9075,0.9078,0.9074,0.9068,0.9072,0.9067,0.9067,0.9073,0.9078,0.9079,0.908,0.9092,0.9095,0.9097,0,0,0,0,0,0,0.9094,0.9089,0.9085,0.9091,0.9089,0.9085,0.9088,0.9083,0.9083,0.9082,0.9074,0.9073,0.9079,0.9077,0.9071,0.9082,0.9074,0.9075,0.9083,0.9086,0.9088,0.9088,0.9059,0,0,0,0,0,0.9098,0.91,0.9095,0.91,0.91,0.9095,0.9095,0.9091,0.9089,0.9088,0.9085,0.9083,0.9084,0.9085,0.9086,0.9094,0.9092,0.9098,0.91,0.9101,0.9102,0.9107,0.9109,0.9084,0.9084,0.9084,0,0,0.9104,0.9101,0.9103,0.9103,0.9101,0.9104,0.9094,0.9097,0.9098,0.9088,0.9092,0.909,0.9088,0.9095,0.9097,0.9093,0.9109,0.9103,0.9104,0.9104,0.9108,0.911,0.9112,0.9085,0.9085,0.9085,0,0,0.9117,0.9116,0.912,0.9119,0.9118,0.9114,0.9116,0.9112,0.911,0.9115,0.9107,0.911,0.9112,0.9111,0.911,0.9126,0.9119,0.9126,0.9136,0.9141,0.9143,0.9144,0.915,0.9152,0.9127,0.9127,0.9127,0,0.9125,0.9129,0.9123,0.9127,0.9127,0.9119,0.9124,0.9124,0.9122,0.9123,0.9118,0.9121,0.9119,0.9126,0.913,0.913,0.9131,0.9126,0.9143,0.9144,0.9146,0.9151,0.9153,0.9128,0.9128,0.9128,0.9128,0,0.9139,0.9142,0.9146,0.9145,0.9146,0.9151,0.9146,0.9148,0.9144,0.9141,0.9146,0.9144,0.9145,0.9146,0.9142,0.9152,0.915,0.9144,0.9135,0.9149,0.9154,0.9156,0.9129,0.9129,0.9129,0.9129,0,0,0.9157,0.9155,0.9157,0.9157,0.9155,0.9157,0.9162,0.9163,0.9165,0.9164,0.9168,0.9171,0.9166,0.9166,0.9162,0.9166,0.9179,0.916,0.916,0.9164,0.919,0.9194,0.9196,0.9176,0.9176,0.9176,0.919,0,0.9169,0.9177,0.9173,0.9181,0.9183,0.9177,0.9181,0.9181,0.9179,0.9181,0.9179,0.9181,0.9175,0.9175,0.9179,0.9177,0.9184,0.9176,0.9178,0.9179,0.9178,0.9198,0.9202,0.9215,0.9192,0.9192,0.9193,0,0.9184,0.9185,0.9193,0.9193,0.9194,0.9197,0.9199,0.9201,0.9201,0.9199,0.92,0.9196,0.9201,0.9193,0.92,0.9194,0.9196,0.9195,0.9195,0.9194,0.9186,0.9197,0.9219,0.9221,0.9195,0.9195,0.9195,0,0.9196,0.92,0.9206,0.9206,0.9205,0.9208,0.9208,0.9207,0.9209,0.921,0.9211,0.9213,0.9214,0.9216,0.9212,0.9207,0.9219,0.9211,0.9218,0.9218,0.9219,0.9219,0.9241,0.9222,0.9222,0.9222,0.9222,0,0.9209,0.9215,0.9211,0.9214,0.9221,0.9217,0.9223,0.9222,0.9222,0.9226,0.9221,0.9224,0.9219,0.9222,0.922,0.9226,0.9226,0.9225,0.9224,0.9225,0.9225,0.9225,0.9224,0.9222,0.9222,0.9222,0.9222,0,0.9223,0.9221,0.9227,0.9226,0.9226,0.9231,0.923,0.9234,0.9232,0.9237,0.9238,0.9235,0.9239,0.9236,0.9239,0.9237,0.9245,0.9243,0.9245,0.9244,0.9251,0.925,0.9272,0.9275,0.9255,0.9255,0.9255,0,0.9231,0.9235,0.9236,0.9238,0.9238,0.9242,0.9243,0.924,0.9242,0.9244,0.9247,0.925,0.9252,0.9258,0.9257,0.926,0.9257,0.9265,0.9257,0.9259,0.9257,0.9256,0.9257,0.9266,0.9266,0.9267,0.9267,0,0.9246,0.9245,0.9248,0.9251,0.9253,0.9255,0.9257,0.9259,0.9256,0.9259,0.9262,0.9264,0.9268,0.9272,0.9274,0.9274,0.927,0.927,0.9271,0.9271,0.9272,0.9271,0.9249,0.9269,0.9268,0.9268,0.9268,0.9268,0.9257,0.926,0.9261,0.9265,0.9266,0.9268,0.9272,0.9271,0.9275,0.9278,0.9276,0.9281,0.9282,0.9285,0.9286,0.9289,0.9286,0.9288,0.9289,0.9289,0.929,0.9273,0.929,0.929,0.929,0.929,0.929,0,0.9271,0.9272,0.9275,0.9278,0.9281,0.9278,0.928,0.9283,0.9287,0.9289,0.9292,0.9297,0.93,0.93,0.9303,0.9306,0.9305,0.9307,0.9306,0.9307,0.9293,0.9291,0.9309,0.9309,0.9309,0.9309,0.9309,0.9309,0.9278,0.9284,0.9284,0.9291,0.9292,0.9297,0.9298,0.93,0.9302,0.9308,0.9311,0.9311,0.9312,0.9316,0.9319,0.9319,0.932,0.9323,0.9323,0.9309,0.9307,0.9306,0.9304,0.9324,0.9324,0.9336,0.9336,0.9336]},{"header":{"parameterUnit":"m.s-1","parameterCategory":1,"la1":30.2991,"la2":30.254,"lo1":-89.0895,"lo2":-89.0444,"dy":0.0017,"dx":0.0017,"nx":28,"ny":28,"refTime":"2024-08-12T03:00:00:Z","depth":0,"parameterNumber":3,"parameterNumberName":"V-component_of_WINDS"},"data":[0,0,0,0,0,0,0,0,0,0,0,0,0,0,0,0,0,0,0,0,0,0,0,0,0,0,0,0,0,0,0,0,0,0,0,0,0,0,0,0,0,0,0,0,0,0,0,0,0,0,0,0,0,0,0,0,0,0,-1.6742,-1.6742,0,-1.6761,-1.6761,-1.6761,-1.676,-1.676,-1.6759,-1.6759,-1.6777,-1.6778,-1.6778,0,0,0,0,0,0,0,0,0,0,0,0,0,-1.6705,-1.6706,-1.6742,-1.6742,-1.6742,-1.6761,-1.6761,-1.6761,-1.676,-1.676,-1.6759,-1.6759,-1.6777,-1.6778,-1.6778,0,0,0,0,0,0,0,0,0,0,0,0,0,-1.6722,-1.6706,-1.6742,-1.6744,-1.6744,-1.6761,-1.6761,-1.6761,-1.676,-1.676,-1.6759,-1.6759,-1.6776,-1.6777,-1.6779,-1.6793,0,0,-1.6782,-1.6782,0,0,0,0,0,0,0,0,-1.6721,-1.6724,-1.6743,-1.6744,-1.6744,-1.6758,-1.6754,-1.6772,-1.676,-1.6754,-1.6759,-1.6759,-1.6771,-1.6772,-1.6777,-1.6794,-1.6795,-1.6782,-1.6783,-1.6783,-1.6783,0,0,0,0,0,0,0,-1.672,-1.6723,-1.6749,-1.6744,-1.6744,-1.6744,-1.6746,-1.6758,-1.6764,-1.6754,-1.6754,-1.6757,-1.6771,-1.6776,-1.6777,-1.6795,-1.6782,-1.6783,-1.6784,-1.6784,-1.6828,-1.6829,0,0,0,0,0,0,-1.6719,-1.6722,-1.6749,-1.675,-1.6732,-1.6745,-1.6747,-1.6754,-1.6764,-1.6765,-1.6757,-1.6757,-1.6774,-1.6776,-1.6778,-1.6797,-1.6783,-1.6784,-1.6785,-1.6828,-1.6829,-1.6829,0,0,0,0,0,0,-1.6718,-1.6721,-1.6748,-1.6736,-1.6739,-1.6746,-1.6753,-1.6754,-1.6759,-1.6766,-1.6767,-1.6761,-1.6774,-1.6776,-1.679,-1.6798,-1.6785,-1.6786,-1.6827,-1.6828,-1.6829,-1.6836,0,0,0,0,0,0,-1.6717,-1.6721,-1.6726,-1.6736,-1.674,-1.676,-1.6754,-1.6755,-1.6761,-1.6761,-1.677,-1.6771,-1.6773,-1.6788,-1.6791,-1.6799,-1.6786,-1.6827,-1.6828,-1.6829,-1.6835,-1.6837,-1.6838,0,0,0,0,0,-1.6715,-1.6726,-1.6726,-1.673,-1.6747,-1.676,-1.6763,-1.6766,-1.6762,-1.6767,-1.6773,-1.6771,-1.6797,-1.679,-1.6793,-1.6801,-1.6826,-1.6827,-1.6828,-1.6834,-1.6836,-1.6838,0,0,0,0,0,0,-1.6716,-1.6728,-1.6728,-1.6742,-1.6751,-1.676,-1.6767,-1.6767,-1.6776,-1.6776,-1.6779,-1.6781,-1.6795,-1.68,-1.6792,-1.6818,-1.6811,-1.6813,-1.6814,-1.6816,-1.6818,-1.6817,-1.6787,0,0,0,0,0,-1.6718,-1.6728,-1.6738,-1.675,-1.6754,-1.676,-1.6766,-1.6768,-1.6776,-1.6779,-1.6785,-1.6793,-1.6804,-1.681,-1.682,-1.6836,-1.6839,-1.6843,-1.6845,-1.6846,-1.6848,-1.6859,-1.6861,-1.6833,-1.6833,-1.6833,0,0,-1.6722,-1.673,-1.6736,-1.675,-1.6757,-1.6768,-1.6763,-1.6774,-1.6782,-1.6781,-1.6795,-1.68,-1.6809,-1.6825,-1.6832,-1.6829,-1.6857,-1.6848,-1.6849,-1.685,-1.686,-1.6863,-1.6865,-1.6834,-1.6834,-1.6834,0,0,-1.6735,-1.6741,-1.6753,-1.676,-1.6771,-1.6775,-1.6778,-1.6788,-1.6792,-1.6806,-1.6807,-1.6816,-1.6833,-1.6841,-1.6846,-1.6865,-1.6864,-1.6868,-1.6877,-1.6888,-1.689,-1.6892,-1.69,-1.6903,-1.687,-1.687,-1.687,0,-1.6738,-1.6755,-1.6759,-1.6771,-1.6778,-1.6779,-1.6791,-1.6798,-1.6811,-1.6816,-1.6812,-1.6835,-1.6841,-1.686,-1.6865,-1.6869,-1.6873,-1.6867,-1.6889,-1.6891,-1.6893,-1.6901,-1.6904,-1.687,-1.687,-1.687,-1.687,0,-1.6759,-1.6771,-1.6779,-1.6793,-1.6801,-1.6813,-1.6819,-1.6827,-1.6829,-1.6834,-1.685,-1.6858,-1.687,-1.6874,-1.6875,-1.6894,-1.6892,-1.6889,-1.6882,-1.6896,-1.6904,-1.6907,-1.6871,-1.6871,-1.687,-1.687,0,0,-1.6771,-1.679,-1.6792,-1.68,-1.6813,-1.6822,-1.6835,-1.6848,-1.6855,-1.6864,-1.6876,-1.6892,-1.689,-1.6897,-1.6899,-1.6908,-1.6925,-1.6904,-1.6905,-1.6909,-1.6947,-1.695,-1.6954,-1.6924,-1.6925,-1.6925,-1.6947,0,-1.6786,-1.681,-1.6815,-1.6835,-1.6847,-1.6849,-1.6861,-1.687,-1.6876,-1.6887,-1.6893,-1.6905,-1.69,-1.6905,-1.6914,-1.6921,-1.6933,-1.6919,-1.6936,-1.6936,-1.6934,-1.6957,-1.696,-1.698,-1.695,-1.695,-1.6951,0,-1.6806,-1.6818,-1.684,-1.6854,-1.6859,-1.6869,-1.6883,-1.6893,-1.6905,-1.6908,-1.6918,-1.6919,-1.6934,-1.6927,-1.6947,-1.6938,-1.6945,-1.695,-1.6951,-1.6953,-1.6945,-1.6961,-1.6986,-1.699,-1.6955,-1.6955,-1.6954,0,-1.6815,-1.6836,-1.6853,-1.6859,-1.6875,-1.6883,-1.6889,-1.6901,-1.6909,-1.6921,-1.6927,-1.694,-1.6947,-1.6957,-1.6963,-1.6957,-1.6984,-1.6977,-1.6988,-1.6988,-1.6994,-1.6993,-1.7021,-1.6997,-1.6997,-1.6997,-1.6997,0,-1.6832,-1.6845,-1.6857,-1.6867,-1.6883,-1.689,-1.6905,-1.6912,-1.6923,-1.6935,-1.6937,-1.6948,-1.6955,-1.6968,-1.6972,-1.699,-1.6992,-1.6996,-1.6998,-1.6997,-1.6996,-1.7002,-1.7001,-1.6998,-1.6998,-1.6997,-1.6997,0,-1.6843,-1.6852,-1.687,-1.6885,-1.6889,-1.6901,-1.6913,-1.6924,-1.693,-1.6946,-1.695,-1.696,-1.6975,-1.6982,-1.7,-1.7003,-1.7024,-1.7023,-1.702,-1.7021,-1.7032,-1.7032,-1.7065,-1.7071,-1.7042,-1.7042,-1.7042,0,-1.6853,-1.6864,-1.6881,-1.689,-1.6898,-1.6912,-1.6921,-1.6928,-1.6938,-1.6954,-1.6962,-1.6978,-1.6991,-1.7015,-1.7024,-1.7039,-1.7039,-1.705,-1.7041,-1.7041,-1.7041,-1.7041,-1.7043,-1.7052,-1.7052,-1.7052,-1.7053,0,-1.6871,-1.6876,-1.6889,-1.6905,-1.6917,-1.6929,-1.6941,-1.6948,-1.6958,-1.6969,-1.6985,-1.6995,-1.7015,-1.7031,-1.7047,-1.7054,-1.7056,-1.7056,-1.7059,-1.7059,-1.7057,-1.706,-1.7026,-1.7055,-1.7054,-1.7054,-1.7054,-1.7054,-1.6883,-1.6894,-1.6909,-1.6924,-1.6935,-1.6947,-1.6959,-1.6968,-1.6982,-1.6999,-1.7003,-1.702,-1.7034,-1.7055,-1.7064,-1.7078,-1.7076,-1.708,-1.7082,-1.7083,-1.7085,-1.7055,-1.7081,-1.7081,-1.7081,-1.7081,-1.7081,0,-1.6902,-1.6913,-1.6927,-1.6945,-1.6958,-1.696,-1.6974,-1.6985,-1.7001,-1.7014,-1.7027,-1.7047,-1.7063,-1.7074,-1.7091,-1.7101,-1.7102,-1.7105,-1.7105,-1.7107,-1.7085,-1.7081,-1.7104,-1.7104,-1.7104,-1.7104,-1.7104,-1.7104,-1.6914,-1.6933,-1.694,-1.6965,-1.6975,-1.6993,-1.7001,-1.7013,-1.7024,-1.7047,-1.7061,-1.7068,-1.7081,-1.7099,-1.7115,-1.7118,-1.7124,-1.7128,-1.7131,-1.711,-1.7108,-1.7106,-1.7102,-1.7129,-1.7129,-1.7151,-1.7151,-1.7152]}]]